Tracking 28779 objects as of 15-Apr-2024
HD Live streaming from Space Station
objects crossing your sky now

FENGYUN 1C DEB

Track FENGYUN 1C DEB now!
10-day predictions


NORAD ID: 31844
Int'l Code: 1999-025CJJ
Perigee: 771.0 km
Apogee: 927.7 km
Inclination: 100.3 °
Period: 101.8 minutes
Semi major axis: 7220 km
RCS: 0.0099 m2 (small)
Launch date: May 10, 1999
Source: People's Republic of China (PRC)
Launch site: Taiyaun Space Center, China (TSC)

Note: This is SATELLITE DEBRIS
Your satellite tracking list
Your tracking list is empty




NASA's NSSDC Master Catalog

Two Line Element Set (TLE):
1 31844U 99025CJJ 24101.12883349  .00001587  00000-0  80171-3 0  9992
2 31844 100.2792 348.5207 0108528 217.3217 142.0376 14.15032289866669
Source of the keplerian elements: AFSPC